Location: Phoenix
(33.4480°N, 112.0730°W)
Time: 20:26:47
(UTC-07:00)

Cosmos 1470 Rocket - Visible Passes

Search period start: 24 June 2017 00:00
Search period end: 04 July 2017 00:00
Orbit: 605 x 633 km, 82.5° (Epoch: 24 June)

Date Brightness Start Highest point End Pass type
(mag) Time Alt. Az. Time Alt. Az. Time Alt. Az.
24 Jun 6.2 01:16:12 12° NW 01:16:12 12° NW 01:17:01 10° NW visible
24 Jun 5.6 23:56:12 25° NNE 23:56:12 25° NNE 23:58:09 10° N visible
26 Jun 5.6 00:13:21 26° NNW 00:13:21 26° NNW 00:15:25 10° N visible
26 Jun 6.1 22:53:20 13° NE 22:53:20 13° NE 22:54:00 10° NE visible
27 Jun 5.9 00:30:28 20° NW 00:30:28 20° NW 00:32:18 10° NNW visible
27 Jun 5.6 23:10:26 21° NE 23:10:26 21° NE 23:12:09 10° NNE visible
28 Jun 6.3 00:47:35 12° NW 00:47:35 12° NW 00:48:29 10° NW visible
28 Jun 5.3 23:27:32 29° NNE 23:27:32 29° NNE 23:29:46 10° N visible
29 Jun 5.4 23:44:37 29° NNW 23:44:37 29° NNW 23:47:01 10° N visible
30 Jun 5.8 22:24:33 15° NE 22:24:33 15° NE 22:25:43 10° NE visible
01 Jul 5.8 00:01:41 21° NW 00:01:41 21° NW 00:03:51 10° NNW visible
01 Jul 5.2 22:41:35 25° NE 22:41:35 25° NE 22:43:48 10° NNE visible
02 Jul 6.3 00:18:44 13° WNW 00:18:44 13° WNW 00:19:54 10° NW visible
02 Jul 4.8 22:58:37 37° NNE 22:58:37 37° NNE 23:01:22 10° N visible
03 Jul 5.0 23:15:38 36° NNW 23:15:38 36° NNW 23:18:35 10° N visible
